Simultaneous Nadir Overpasses (SNOs) Predictions

Prediction of SNOs between GOES-16 and NOAA-19 Satellite Orbit:

Table of predicted SNOs for the next 14.0 days since TLE Epoch: 12/23/2023
Index Date Time (GOES-16) GOES-16 Lat,Lon NOAA-19 Lat,Lon Distance(km) Time Diff (sec)
1 12/23/2023 14:07:11 -0.04, -75.23 0.36, -76.96 197.76 80
2 12/24/2023 13:52:22 -0.05, -75.23 -0.31, -74.00 139.92 80
3 12/25/2023 13:40:13 -0.05, -75.23 -1.04, -71.05 477.70 80
4 12/27/2023 02:14:59 0.04, -75.21 -0.81, -78.74 403.76 80
5 12/28/2023 02:02:49 0.04, -75.21 -0.12, -75.78 65.55 80
6 12/29/2023 01:48:00 0.04, -75.22 0.56, -72.82 273.01 80
7 12/31/2023 14:10:19 -0.03, -75.27 0.49, -77.50 254.40 80
8 01/01/2024 13:55:30 -0.03, -75.29 -0.20, -74.54 84.82 80
9 01/02/2024 13:43:20 -0.03, -75.30 -0.88, -71.59 424.21 80
10 01/04/2024 02:18:05 0.02, -75.30 -0.91, -79.28 454.06 80
11 01/05/2024 02:05:55 0.02, -75.32 -0.21, -76.32 114.29 80
